Other Public Products
Issued by NWS Charleston, SC

Current Version | Previous Version | Text Only | Print | Product List | Glossary Off
Versions: 1 2 3 4 5 6 7 8 9 10 11 12 13 14 15 16 17 18 19 20 21 22 23 24 25 26 27 28 29 30 31 32 33 34 35 36 37 38 39 40 41 42 43 44 45 46 47 48 49 50
093 FPUS82 KCHS 130526 OPUCHS TEST...KCHS/KSAV Gateway Observations...TEST National Weather Service Charleston SC 1200 AM EST WED DEC 13 2017 NOTE: "fair" indicates few or no clouds below 12,000 feet with no significant weather and/or obstructions to visibility. SCZ050-WAZ558-NCZ071-TXZ119-213-PAZ071-DCZ001-FLZ074-172-MI076- NYZ176-178-MAZ016-IL014-TNZ027-NJZ106-GAZ044-MD014-130600- ...Gateway Observations for Charleston International... CITY SKY/WX TMP DP RH WIND PRES REMARKS Chas Airport PTCLDY 44 29 55 W9 29.89R Seattle CLOUDY 41 33 73 N6 30.39S Charlotte CLEAR 33 5 30 NW3 29.86R Dallas DFW CLEAR 44 28 53 SW8 30.18F Dallas Love CLEAR 43 28 55 S3 30.21F Philladelphia CLEAR 24 0 35 W18G25 29.63R WCI 10 Wash National PTCLDY 25 1 35 NW14G29 29.75R WCI 13 Baltimore PTCLDY 23 2 40 W25G33 29.71R WCI 7 Miami PTCLDY 62 58 86 SW3 29.99F Detroit CLOUDY 18 8 65 W8 29.88F WCI 8 Newark MOCLDY 29 7 39 NW20G25 29.49R WCI 16 Laguardia MOCLDY 32 15 49 NW23G31 29.46R WCI 19 J F K MOCLDY 31 12 45 NW24G32 29.47R WCI 17 Boston Logan CLOUDY 35 31 85 W12 29.26S WCI 27 Ft. Lauderdale PTCLDY 61 59 93 SW6 29.98S Chicago O`Hare CLOUDY 21 9 59 SW6 29.94F WCI 13 Chicago Midway CLOUDY 22 7 52 W8 29.96F WCI 12 Houston Bush CLEAR 44 30 57 CALM 30.25S Houston Hobby CLEAR 43 31 62 W3 30.25S Nashville CLEAR 29 9 43 CALM 30.12F Atlanta CLEAR 36 19 50 NW14G24 30.00R WCI 27 $$ GAZ044-118-TXZ119-213-NCZ071-DCZ001-MDZ014-506-PAZ021-071-NJZ106- NYZ176-178-MAZ106-OHZ011-021-055-MIZ076-KYZ091-ILZ014-INZ047- MNZ060-ONZ431-130600- ...Gateway Observations for Savannah International... CITY SKY/WX TMP DP RH WIND PRES REMARKS Savannah Arpt CLEAR 44 30 57 W10 29.94S Atlanta CLEAR 36 19 50 NW14G24 30.00R WCI 27 Charlotte CLEAR 33 5 30 NW3 29.86R Dallas DFW CLEAR 44 28 53 SW8 30.18F Houston Bush CLEAR 44 30 57 CALM 30.25S Wash National PTCLDY 25 1 35 NW14G29 29.75R WCI 13 Wash Dulles MOCLDY 23 1 38 NW33G43 29.74R WCI 5 Baltimore PTCLDY 23 2 40 W25G33 29.71R WCI 7 Philadelphia CLEAR 24 0 35 W18G25 29.63R WCI 10 Newark MOCLDY 29 7 39 NW20G25 29.49R WCI 16 Laguardia MOCLDY 32 15 49 NW23G31 29.46R WCI 19 J F K MOCLDY 31 12 45 NW24G32 29.47R WCI 17 Boston CLOUDY 35 31 85 W12 29.26S WCI 27 Pittsburg PTCLDY 16 7 67 W13 29.77S WCI 2 Akron LGT SNOW 16 10 77 W10 29.81S VSB 1 WCI 4 Cleveland MOCLDY 19 3 49 NW18G26 29.86F WCI 4 Cincinnati CLEAR 17 10 74 W6 30.00S WCI 9 Columbus CLOUDY 20 13 73 W15 29.93F WCI 6 Detroit CLOUDY 18 8 65 W8 29.88F WCI 8 Chicago O`Hare CLOUDY 21 9 59 SW6 29.94F WCI 13 Minneapolis CLOUDY 26 23 88 SE7 29.63F WCI 18 Indianapolis PTCLDY 17 7 64 W7 30.01F WCI 8 Toronto Canada LGT SNOW 12 5 73 NW14 29.61F WCI -3 $$

USA.gov is the U.S. government's official web portal to all federal, state and local government web resources and services.